Location: Central Falls
(41.8900°N, 71.3929°W)
Time: 11:11:57
(UTC+00:00)

A-11 Canister half - Pass Details

Date: 07 December 2023
Orbit: 1526 x 1682 km, 47.3° (Epoch: 20 February)

Event Time Altitude Azimuth Distance (km) Brightness Sun altitude
Rises 05:54:45 0° 297° (WNW) 4,905 - -64.7°
Reaches altitude 10° 05:58:02 10° 293° (WNW) 3,899 - -64.3°
Maximum altitude 06:07:29 51° 221° (SW) 1,959 - -63.0°
Drops below altitude 10° 06:16:38 10° 149° (SSE) 3,769 - -61.6°
Sets 06:19:46 0° 145° (SE) 4,731 - -61.1°
